Stations météo

réclame
Mon MeteoGroup
Kenley, Grande-Bretagne (3781): Température de l'air & dewpoint: 18.11.2020 14:00:00 - 24.11.2020 14:00:00 (GMT)Kenley, Grande-Bretagne (3781): Température de l'air -20cm & Température de l'air -100cm: 18.11.2020 14:00:00 - 24.11.2020 14:00:00 (GMT)Kenley, Grande-Bretagne (3781): Vitesse du vent & gusts: 18.11.2020 14:00:00 - 24.11.2020 14:00:00 (GMT)Kenley, Grande-Bretagne (3781): Direction du vent: 18.11.2020 14:00:00 - 24.11.2020 14:00:00 (GMT)Kenley, Grande-Bretagne (3781): reduced air pressure: 18.11.2020 14:00:00 - 24.11.2020 14:00:00 (GMT)Kenley, Grande-Bretagne (3781): visibility: 18.11.2020 14:00:00 - 24.11.2020 14:00:00 (GMT)Kenley, Grande-Bretagne (3781): Quantités de précipitations: 18.11.2020 14:00:00 - 24.11.2020 14:00:00 (GMT)
Date & Time tt [°C] td [°C] tt -20cm [°C] tt -100cm [°C] ff [km/h] ff [knt] fx [km/h] fx [knt] dd ppp [hPa] vv [km] rr [mm]
24.11.2020 14:00:00 10,0 6,9 - - 22 12 - - S 1015,3 40 0,0
24.11.2020 13:00:00 10,4 6,8 - - 15 8 - - S 1016,5 50 0,0
24.11.2020 12:00:00 10,0 6,8 - - 21 11 - - S 1017,4 45 0,0
24.11.2020 11:00:00 9,6 6,7 - - 22 12 - - SSW 1018,6 40 0,0
24.11.2020 10:00:00 10,0 7,1 - - 21 11 - - SSW 1018,9 40 0,0
24.11.2020 09:00:00 9,3 7,2 9,0 11,2 21 11 - - S 1019,1 45 0,0
24.11.2020 08:00:00 9,4 7,0 - - 18 10 - - S 1019,5 50 0,0
24.11.2020 07:00:00 9,6 7,9 - - 21 11 - - SSW 1019,9 45 0,0
24.11.2020 06:00:00 9,8 8,1 - - 15 8 - - S 1020,1 35 0,0
24.11.2020 05:00:00 10,0 8,8 - - 16 9 - - SSW 1020,8 40 0,0
24.11.2020 04:00:00 10,1 9,4 - - 16 9 - - SSW 1021,2 19 0,0
24.11.2020 03:00:00 9,9 9,1 - - 11 6 - - S 1021,9 45 0,0
24.11.2020 02:00:00 9,7 8,6 - - 11 6 - - SSW 1022,6 50 0,0
24.11.2020 01:00:00 9,5 8,3 - - 13 7 - - SSW 1023,2 50 0,0
24.11.2020 00:00:00 9,1 8,2 - - 15 8 - - SSW 1023,9 50 0,0
23.11.2020 23:00:00 8,2 7,6 - - 13 7 - - SW 1024,3 23 0,0
23.11.2020 22:00:00 8,3 7,6 - - 15 8 - - SW 1024,5 40 0,0
23.11.2020 21:00:00 8,7 7,7 - - 18 10 - - SSW 1024,6 50 0,0
23.11.2020 20:00:00 8,6 7,4 - - 15 8 - - S 1025,2 50 0,0
23.11.2020 19:00:00 8,2 6,7 - - 15 8 - - S 1025,5 50 0,0
23.11.2020 18:00:00 8,3 6,7 - - 13 7 - - S 1025,9 50 0,0
23.11.2020 17:00:00 8,3 6,4 - - 15 8 - - S 1026,1 40 0,0
23.11.2020 16:00:00 7,7 6,1 - - 9 5 - - S 1026,5 24 0,0
23.11.2020 15:00:00 7,9 6,0 - - 11 6 - - SSW 1026,6 26 0,0
23.11.2020 14:00:00 8,0 5,9 - - 13 7 - - SSW 1027,0 35 0,0
23.11.2020 13:00:00 7,8 5,2 - - 11 6 - - SSW 1027,8 40 0,0
23.11.2020 12:00:00 7,8 4,3 - - 11 6 - - SSW 1028,1 50 0,0
23.11.2020 11:00:00 7,8 4,4 - - 9 5 - - SSW 1028,5 50 0,0
23.11.2020 10:00:00 5,7 4,4 - - 9 5 - - SSW 1029,1 45 0,0
23.11.2020 09:00:00 3,9 3,5 9,2 11,2 5 3 - - S 1029,0 45 0,0
23.11.2020 08:00:00 1,5 1,3 - - 2 1 - - S 1028,7 10 0,0
23.11.2020 07:00:00 1,9 1,7 - - 4 2 - - SSW 1028,4 20 0,0
23.11.2020 06:00:00 2,0 1,6 - - 4 2 - - S 1028,2 3,4 0,0
23.11.2020 05:00:00 2,3 2,0 - - 4 2 - - S 1028,3 3,7 0,0
23.11.2020 04:00:00 2,9 2,5 - - 4 2 - - W 1028,2 12 0,0
23.11.2020 03:00:00 3,8 3,3 - - 5 3 - - W 1028,1 16 0,0
23.11.2020 02:00:00 4,2 3,8 - - 4 2 - - W 1028,1 21 0,0
23.11.2020 01:00:00 3,7 3,0 - - 2 1 - - S 1028,2 16 0,0
23.11.2020 00:00:00 5,1 3,8 - - 4 2 - - SW 1028,2 28 0,0
22.11.2020 23:00:00 5,5 3,9 - - 8 4 - - WSW 1028,0 35 0,0
22.11.2020 22:00:00 5,6 3,8 - - 5 3 - - W 1028,0 30 0,0
22.11.2020 21:00:00 5,5 3,6 - - 5 3 - - W 1027,8 14 0,0
22.11.2020 20:00:00 6,6 4,1 - - 8 4 - - WNW 1027,5 29 0,0
22.11.2020 19:00:00 6,7 4,4 - - 9 5 - - W 1027,4 26 0,0
22.11.2020 18:00:00 7,3 4,7 - - 8 4 - - WNW 1027,2 30 0,0
22.11.2020 17:00:00 7,2 4,8 - - 5 3 - - WNW 1026,8 35 0,0
22.11.2020 16:00:00 7,8 4,5 - - 8 4 - - WNW 1026,5 40 0,0
22.11.2020 15:00:00 9,8 5,0 - - 9 5 - - W 1026,0 40 0,0
22.11.2020 14:00:00 10,0 5,3 - - 9 5 - - W 1026,2 50 0,0
22.11.2020 13:00:00 9,3 6,1 - - 11 6 - - W 1026,9 35 0,0
22.11.2020 12:00:00 9,9 6,5 - - 8 4 - - NW 1027,1 35 0,0
22.11.2020 11:00:00 9,0 6,9 - - 8 4 - - WNW 1027,5 50 0,0
22.11.2020 10:00:00 8,7 7,4 - - 9 5 - - NW 1027,3 45 0,0
22.11.2020 09:00:00 8,9 8,5 9,7 11,2 2 1 - - SW 1026,9 45 0,0
22.11.2020 08:00:00 8,4 7,9 - - 4 2 - - SW 1026,7 50 0,0
22.11.2020 07:00:00 8,6 8,1 - - 4 2 - - W 1026,2 50 0,0
22.11.2020 06:00:00 8,7 8,2 - - 11 6 - - NW 1025,9 12 0,2
22.11.2020 05:00:00 9,9 9,5 - - 15 8 - - W 1025,7 4,0 0,0
22.11.2020 04:00:00 10,0 9,2 - - 11 6 - - WSW 1025,5 15 0,0
22.11.2020 03:00:00 10,0 9,2 - - 11 6 - - WSW 1025,2 27 0,0
22.11.2020 02:00:00 10,1 8,9 - - 15 8 - - SW 1025,2 45 0,0
22.11.2020 01:00:00 9,8 8,7 - - 16 9 - - SW 1025,2 45 0,0
22.11.2020 00:00:00 9,5 8,5 - - 18 10 - - SW 1025,1 40 0,0
21.11.2020 23:00:00 9,6 8,4 - - 16 9 - - SW 1025,1 45 0,0
21.11.2020 22:00:00 9,5 8,5 - - 16 9 - - SW 1025,7 23 0,0
21.11.2020 21:00:00 9,4 8,4 - - 15 8 - - SW 1026,1 30 0,0
21.11.2020 20:00:00 9,3 8,3 - - 15 8 - - SW 1026,4 35 0,0
21.11.2020 19:00:00 9,5 8,1 - - 18 10 - - SW 1026,3 40 0,0
21.11.2020 18:00:00 10,1 8,0 - - 18 10 - - SW 1026,1 45 0,0
21.11.2020 17:00:00 10,3 7,6 - - 18 10 - - SW 1026,1 50 0,0
21.11.2020 16:00:00 10,5 7,1 - - 18 10 - - WSW 1026,2 50 0,0
21.11.2020 15:00:00 10,5 7,1 - - 21 11 - - WSW 1026,2 50 0,0
21.11.2020 14:00:00 10,6 7,0 - - 24 13 - - WSW 1026,2 45 0,0
21.11.2020 13:00:00 10,7 7,0 - - 26 14 52 28 WSW 1026,8 40 0,2
21.11.2020 12:00:00 11,0 7,1 - - 24 13 - - WSW 1026,9 35 0,0
21.11.2020 11:00:00 10,9 6,9 - - 21 11 - - WSW 1027,3 40 0,0
21.11.2020 10:00:00 10,1 7,6 - - 16 9 - - SW 1027,7 35 0,0
21.11.2020 09:00:00 9,7 7,9 9,5 11,4 18 10 - - SW 1027,5 40 0,0
21.11.2020 08:00:00 9,4 8,0 - - 24 13 - - SW 1027,6 40 0,0
21.11.2020 07:00:00 9,0 8,1 - - 22 12 - - SW 1027,7 50 0,0
21.11.2020 06:00:00 9,1 7,8 - - 18 10 - - SW 1027,8 50 0,0
21.11.2020 05:00:00 9,1 7,4 - - 18 10 - - WSW 1027,8 50 0,0
21.11.2020 04:00:00 9,0 7,4 - - 21 11 - - SW 1027,6 45 0,0
21.11.2020 03:00:00 9,2 8,0 - - 22 12 - - SW 1027,8 40 0,0
21.11.2020 02:00:00 9,1 8,6 - - 18 10 - - SW 1028,4 13 0,0
21.11.2020 01:00:00 8,9 8,3 - - 18 10 - - SW 1028,8 15 0,0
21.11.2020 00:00:00 9,3 8,9 - - 22 12 - - SW 1029,1 20 0,0
20.11.2020 23:00:00 9,5 9,3 - - 16 9 - - SW 1029,6 4,4 0,0
20.11.2020 22:00:00 9,5 9,3 - - 22 12 - - SW 1029,9 13 0,0
20.11.2020 21:00:00 9,2 9,1 - - 18 10 - - SW 1030,3 2,4 0,2
20.11.2020 20:00:00 9,1 8,9 - - 18 10 - - SW 1030,5 4,8 0,0
20.11.2020 19:00:00 9,0 8,8 - - 21 11 - - SW 1030,7 7 0,0
20.11.2020 18:00:00 8,7 8,5 - - 21 11 - - SSW 1031,0 3,4 0,0
20.11.2020 17:00:00 8,4 8,2 - - 18 10 - - SSW 1031,3 6 0,2
20.11.2020 16:00:00 7,9 7,7 - - 16 9 - - SSW 1031,8 6 0,2
20.11.2020 15:00:00 7,3 7,0 - - 16 9 - - SSW 1032,4 1,7 0,2
20.11.2020 14:00:00 7,0 6,3 - - 16 9 - - SSW 1033,0 3,1 0,4
20.11.2020 13:00:00 6,6 5,1 - - 15 8 - - S 1033,7 20 0,2
20.11.2020 12:00:00 6,4 3,9 - - 13 7 - - S 1034,4 28 0,0
20.11.2020 11:00:00 6,2 3,2 - - 15 8 - - SSW 1035,0 50 0,0
20.11.2020 10:00:00 5,1 2,4 - - 13 7 - - SSW 1035,2 28 0,0
20.11.2020 09:00:00 4,0 2,1 9,5 11,7 13 7 - - SSW 1035,1 50 0,0
20.11.2020 08:00:00 2,8 1,4 - - 13 7 - - SSW 1035,3 45 0,0
20.11.2020 07:00:00 2,6 1,3 - - 9 5 - - SW 1035,0 45 0,0
20.11.2020 06:00:00 2,4 0,8 - - 8 4 - - SW 1035,3 45 0,0
20.11.2020 05:00:00 2,2 1,2 - - 9 5 - - SW 1035,3 45 0,0
20.11.2020 04:00:00 2,0 1,1 - - 9 5 - - WSW 1035,4 45 0,0
20.11.2020 03:00:00 1,9 1,1 - - 8 4 - - WSW 1035,8 50 0,0
20.11.2020 02:00:00 1,9 0,7 - - 8 4 - - WSW 1036,1 45 0,0
20.11.2020 01:00:00 2,2 1,4 - - 5 3 - - WSW 1036,1 40 0,0
20.11.2020 00:00:00 2,6 1,8 - - 5 3 - - SW 1035,9 30 0,0
19.11.2020 23:00:00 2,5 1,5 - - 8 4 - - NW 1036,4 30 0,0
19.11.2020 22:00:00 3,2 1,9 - - 11 6 - - WNW 1036,1 50 0,0
19.11.2020 21:00:00 3,1 1,7 - - 11 6 - - WNW 1034,9 50 0,0
19.11.2020 20:00:00 3,5 2,3 - - 9 5 - - W 1034,2 45 0,0
19.11.2020 19:00:00 4,8 3,4 - - 5 3 - - W 1033,5 50 0,2
19.11.2020 18:00:00 5,9 3,4 - - 15 8 - - NW 1033,7 12 0,0
19.11.2020 17:00:00 5,4 3,4 - - 11 6 - - WNW 1033,1 50 0,0
19.11.2020 16:00:00 5,7 3,7 - - 9 5 - - NW 1031,5 40 0,0
19.11.2020 15:00:00 7,0 5,3 - - 13 7 - - N 1029,7 45 0,0
19.11.2020 14:00:00 6,8 6,1 - - 21 11 - - N 1029,8 30 1,0
19.11.2020 13:00:00 7,2 6,5 - - 15 8 - - NW 1028,2 50 0,6
19.11.2020 12:00:00 8,5 5,4 - - 26 14 - - WNW 1026,2 15 0,0
19.11.2020 11:00:00 8,7 5,7 - - 21 11 - - W 1025,2 50 0,0
19.11.2020 10:00:00 8,1 5,5 - - 22 12 - - W 1024,0 50 0,0
19.11.2020 09:00:00 8,1 4,5 10,5 11,7 26 14 - - W 1022,8 45 0,0
19.11.2020 08:00:00 7,8 3,9 - - 24 13 - - W 1021,6 35 0,0
19.11.2020 07:00:00 7,6 3,8 - - 24 13 48 26 W 1020,2 35 0,0
19.11.2020 06:00:00 7,8 4,2 - - 24 13 50 27 W 1019,8 40 0,0
19.11.2020 05:00:00 7,7 4,3 - - 29 16 54 29 W 1018,8 35 0,0
19.11.2020 04:00:00 7,9 5,3 - - 31 17 55 30 WSW 1018,1 11 0,0
19.11.2020 03:00:00 7,7 4,3 - - 29 16 54 29 WSW 1018,1 25 0,0
19.11.2020 02:00:00 7,2 3,6 - - 26 14 50 27 WSW 1017,9 29 0,0
19.11.2020 01:00:00 6,8 3,3 - - 24 13 - - WSW 1018,1 30 0,0
19.11.2020 00:00:00 6,9 3,2 - - 21 11 - - WSW 1018,4 25 0,0
18.11.2020 23:00:00 7,4 3,3 - - 26 14 46 25 WSW 1018,2 30 0,0
18.11.2020 22:00:00 7,4 3,4 - - 24 13 - - WSW 1017,8 25 0,0
18.11.2020 21:00:00 7,8 4,1 - - 22 12 - - WSW 1017,2 21 0,0
18.11.2020 20:00:00 8,6 4,1 - - 26 14 - - W 1016,7 29 0,0
18.11.2020 19:00:00 9,5 5,8 - - 29 16 55 30 W 1015,7 30 0,0
18.11.2020 18:00:00 9,6 8,5 - - 28 15 57 31 W 1014,7 45 0,6
18.11.2020 17:00:00 13,3 13,0 - - 26 14 - - SW 1012,9 3,3 0,2
18.11.2020 16:00:00 12,7 12,5 - - 26 14 - - SSW 1012,7 2,8 0,0
18.11.2020 15:00:00 11,8 11,3 - - 29 16 50 27 SSW 1012,9 5 0,0
18.11.2020 14:00:00 12,0 9,9 - - 31 17 52 28 SSW 1013,5 9 0,0

tt = Température de l'air
td = dewpoint
tt -20cm = Température de l'air -20cm
tt -100cm = Température de l'air -100cm
ff = Vitesse du vent
fx = gusts
dd = Direction du vent
ppp = reduced air pressure
vv = visibility
rr = Quantités de précipitations

stations d'obs. à proximité